Simultaneous Nadir Overpasses (SNOs) Predictions

Prediction of SNOs between NOAA-20 and METOP-C Satellite Orbit:

Table of predicted SNOs for the next 14.0 days since TLE Epoch: 2/1/2020
Index Date (NOAA-20) Time (NOAA-20) Lat,Lon (NOAA-20) SZA (NOAA-20 ) Date (METOP-C) Time (METOP-C) Lat,Lon (METOP-C) SZA (METOP-C ) Distance(km) Time Diff (sec)
1 02/01/2020 04:58:11 72.64, 97.40 90.13 02/01/2020 04:58:36 72.64, 97.34 90.12 1.95 25
2 02/01/2020 05:48:55 -72.64, -95.28 89.89 02/01/2020 05:49:18 -72.67, -95.27 89.87 3.37 23
3 02/01/2020 06:39:41 72.65, 72.02 90.11 02/01/2020 06:39:57 72.63, 71.98 90.09 2.45 16
4 02/01/2020 07:30:25 -72.65,-120.66 89.91 02/01/2020 07:30:39 -72.66,-120.64 89.90 1.80 14
5 02/01/2020 08:21:11 72.65, 46.64 90.09 02/01/2020 08:21:17 72.67, 46.72 90.10 3.19 6
6 02/01/2020 09:11:55 -72.65,-146.04 89.92 02/01/2020 09:12:00 -72.65,-146.00 89.93 1.49 5
7 02/01/2020 10:02:41 72.65, 21.26 90.08 02/01/2020 10:02:38 72.65, 21.35 90.07 3.17 3
8 02/01/2020 10:53:25 -72.65,-171.42 89.94 02/01/2020 10:53:21 -72.63,-171.36 89.96 2.88 4
9 02/01/2020 11:44:10 72.61, -4.02 90.00 02/01/2020 11:44:00 72.59, -4.11 90.00 3.69 10
10 02/01/2020 12:34:54 -72.60, 163.30 90.01 02/01/2020 12:34:42 -72.62, 163.27 89.99 1.97 12
11 02/01/2020 13:25:40 72.61, -29.40 89.99 02/01/2020 13:25:20 72.63, -29.37 90.01 2.14 20
12 02/01/2020 14:16:24 -72.61, 137.92 90.03 02/01/2020 14:16:03 -72.61, 137.91 90.02 0.30 21
13 02/01/2020 15:07:10 72.61, -54.78 89.97 02/01/2020 15:06:41 72.61, -54.74 89.98 1.38 29
14 02/01/2020 15:57:54 -72.61, 112.54 90.05 02/01/2020 15:57:24 -72.59, 112.55 90.06 1.85 30
15 02/01/2020 16:48:39 72.61, -80.16 89.95 02/01/2020 16:48:01 72.60, -80.10 89.94 2.55 38
16 02/01/2020 17:39:22 -72.56, 87.26 90.12 02/01/2020 17:38:44 -72.58, 87.18 90.09 3.29 38
17 02/01/2020 18:30:08 72.57,-105.44 89.88 02/01/2020 18:29:22 72.59,-105.47 89.91 2.35 46
18 02/01/2020 19:20:52 -72.57, 61.88 90.13 02/01/2020 19:20:05 -72.57, 61.82 90.12 2.06 47
19 02/01/2020 20:11:38 72.57,-130.82 89.86 02/01/2020 20:10:43 72.57,-130.83 89.88 0.52 55
20 02/01/2020 21:02:22 -72.57, 36.50 90.15 02/01/2020 21:01:26 -72.55, 36.46 90.15 2.19 56
21 02/01/2020 21:53:08 72.57,-156.20 89.85 02/01/2020 21:52:04 72.56,-156.19 89.85 1.53 64
22 02/01/2020 22:43:52 -72.57, 11.12 90.17 02/01/2020 22:42:46 -72.59, 11.20 90.14 3.35 66
23 02/01/2020 23:34:38 72.57, 178.42 89.83 02/01/2020 23:33:25 72.54, 178.44 89.82 3.43 73
24 02/02/2020 00:25:22 -72.57, -14.26 90.19 02/02/2020 00:24:07 -72.58, -14.17 90.17 3.09 75
25 02/02/2020 01:16:02 72.27, 153.65 89.48 02/02/2020 01:14:51 72.28, 152.57 89.56 36.62 71
26 02/02/2020 02:06:46 -72.27, -39.03 90.54 02/02/2020 02:05:34 -72.26, -40.14 90.47 37.55 72
27 02/02/2020 02:57:26 71.97, 128.87 89.13 02/02/2020 02:56:18 71.95, 126.62 89.26 77.41 68
28 02/02/2020 03:48:09 -71.92, -63.72 90.94 02/02/2020 03:47:01 -71.94, -66.09 90.77 81.59 68




NCC Satellite Simultaneous Nadir Overpasses (SNOs) Prediction Service
